Theta_e
304 304 305 306 308 310 301 292 282 300 305 290 290 286 288 294 294 296 295 291 289 287 288 286 285 285 288 293 292 287 290 285 274 282 287 289 287 284 282 273 272 275 274 277
303 303 304 305 307 309 295 288 288 299 299 286 288 291 293 295 295 295 294 291 292 292 287 284 286 288 292 294 293 289 290 283 273 278 285 288 284 286 286 283 280 272 275 278
303 303 303 304 305 308 295 288 281 288 294 292 289 290 289 290 296 295 295 291 293 290 288 289 287 288 292 295 295 298 295 285 277 275 277 284 279 284 285 284 279 278 280 282
303 303 303 303 305 306 296 290 290 292 283 287 291 293 292 290 290 295 295 292 291 290 287 287 287 289 290 293 298 296 292 279 280 284 286 285 284 284 285 282 284 281 284 285
303 302 302 303 304 305 295 292 291 293 288 291 289 290 288 290 292 292 291 291 293 292 289 289 287 289 288 287 289 289 292 284 285 283 285 285 282 285 285 286 286 287 287 286
303 302 302 302 302 300 293 292 297 294 289 288 287 287 290 291 293 294 295 293 293 292 293 295 294 293 293 291 289 287 287 284 281 273 283 283 279 283 285 286 287 287 285 291
303 302 302 301 301 300 296 295 295 292 286 287 289 291 293 292 293 291 294 296 294 296 299 298 295 295 295 294 293 295 289 284 280 274 280 272 286 290 291 288 290 292 292 295
302 302 302 302 301 301 292 299 291 291 286 290 290 291 291 292 293 292 294 296 298 300 296 290 289 289 288 291 293 292 293 289 277 276 276 282 287 291 290 289 288 293 292 294
303 302 302 302 301 301 290 297 299 293 288 287 293 291 293 288 286 289 294 298 299 298 293 288 282 283 287 286 289 294 292 292 286 283 278 276 285 291 295 293 284 293 293 294
303 302 301 301 301 300 292 290 297 293 289 293 290 291 293 294 290 288 291 293 293 294 288 285 283 280 289 284 284 286 288 288 284 284 282 282 289 291 295 282 284 293 293 293
301 302 301 300 301 300 293 289 293 289 289 289 292 294 294 295 292 287 291 291 292 290 287 285 287 286 288 287 288 286 286 284 285 285 282 278 292 293 288 292 293 294 293 292
301 302 301 300 301 300 298 287 292 293 287 286 293 295 296 295 297 296 295 292 291 292 287 286 289 288 288 285 284 288 286 287 285 286 285 292 294 294 296 295 293 293 292 293
301 300 300 300 301 300 298 292 290 288 285 285 285 286 292 297 296 301 296 295 297 295 295 292 292 287 291 285 286 285 291 293 290 288 292 293 293 294 294 292 291 292 294 292
302 301 300 300 300 300 300 290 292 290 285 281 282 297 294 300 301 300 303 303 300 299 296 292 290 289 292 287 288 289 291 292 292 291 293 294 293 294 293 292 294 293 293 292
301 300 300 300 300 300 298 295 292 293 284 281 283 289 294 297 303 303 305 303 301 296 293 293 290 292 292 293 292 289 291 289 289 288 296 295 295 294 293 292 292 291 291 289
301 300 300 300 299 299 295 284 295 294 291 282 279 291 294 301 302 302 302 302 301 299 296 295 296 298 294 289 288 292 293 295 297 292 295 295 295 293 292 291 290 290 290 289
300 300 300 299 299 296 290 284 292 297 292 285 282 284 296 302 301 300 301 302 299 297 297 295 295 295 296 292 287 294 296 299 298 298 296 293 293 293 292 291 290 291 288 287
300 299 299 298 299 296 288 291 297 297 290 288 281 284 295 301 296 295 301 298 298 298 296 296 294 295 295 288 291 295 297 294 297 295 296 295 292 291 289 289 288 286 285 284
298 299 299 297 294 287 288 299 298 295 290 284 285 284 287 300 297 298 297 299 293 296 293 293 294 292 289 290 288 288 289 289 291 292 292 290 290 289 288 287 286 285 284 284
298 293 291 286 289 298 296 293 289 287 287 286 283 290 290 296 295 294 294 295 292 287 293 295 292 290 293 290 289 288 289 290 289 287 286 287 283 285 287 286 287 287 286 284
290 286 285 288 296 292 290 284 284 286 284 288 288 293 292 297 290 293 295 288 288 285 287 289 286 288 287 288 287 288 289 289 290 290 291 292 292 290 288 287 288 287 286 284
288 289 293 292 288 286 283 282 285 285 284 290 290 292 294 294 296 291 291 285 287 283 289 286 283 287 285 286 286 287 287 288 290 290 291 292 293 292 289 288 289 288 287 284
292 289 284 284 285 279 279 278 282 285 286 287 287 287 291 293 294 289 288 285 284 285 285 283 285 284 285 285 285 286 287 288 289 290 290 291 293 292 292 290 290 288 285 284
283 281 277 279 279 281 282 282 283 286 286 287 288 288 288 288 288 289 285 287 285 282 280 281 283 281 283 284 285 284 284 286 287 288 289 290 291 290 290 288 287 286 284 283
278 281 275 278 281 283 284 285 285 287 289 287 288 287 289 286 286 287 285 283 281 282 278 282 277 279 281 282 283 283 283 284 285 286 288 288 288 288 287 287 286 286 285 284
279 280 277 282 281 281 282 282 282 287 287 287 286 286 285 285 285 284 282 281 279 277 281 278 278 280 281 281 282 283 283 283 284 285 286 287 287 287 286 287 287 286 285 284
277 278 282 280 282 282 279 280 282 286 285 285 285 284 284 285 284 282 284 283 283 282 283 276 278 279 280 281 282 282 283 283 283 283 284 283 285 284 284 283 283 283 283 282
Wind_Speed
25 27 29 31 27 21 8 3 4 4 2 3 1 3 3 5 2 3 3 4 6 5 5 5 4 8 5 9 6 7 2 5 3 7 2 5 4 6 6 5 5 3 3 11
25 27 28 30 29 19 2 3 1 2 3 3 3 4 1 3 2 5 3 3 4 5 6 5 3 4 4 10 7 8 4 2 2 3 4 2 4 5 5 2 3 6 1 9
23 26 27 28 30 22 3 3 4 4 2 0 1 4 3 5 4 3 4 5 12 5 3 3 4 3 4 4 6 9 8 3 6 6 6 3 4 5 7 7 4 4 13 22
21 24 26 27 29 24 4 4 3 2 4 5 3 2 4 4 6 6 6 4 2 4 4 4 4 3 3 5 4 3 5 4 2 5 7 5 7 8 8 10 16 8 20 18
19 21 24 25 27 20 4 2 3 5 4 3 4 3 2 5 5 6 6 6 3 4 4 3 6 6 3 4 0 4 2 2 1 5 6 7 6 11 12 15 16 18 23 26
17 19 20 23 25 14 4 4 3 1 5 5 3 2 2 3 2 3 4 2 6 9 3 4 3 4 6 7 8 4 5 5 2 6 4 6 6 9 11 6 6 8 7 10
14 16 17 19 21 16 1 1 2 2 4 2 3 2 2 3 3 2 3 5 4 1 1 3 4 8 7 5 4 5 6 5 3 4 6 2 6 2 7 10 7 9 9 13
10 12 14 15 16 18 3 2 2 2 4 4 4 8 1 1 3 2 2 3 1 2 3 3 3 2 2 1 3 5 5 4 0 2 3 7 4 2 3 5 7 5 7 8
10 9 11 12 12 15 3 2 1 1 3 3 5 3 3 4 1 3 1 1 2 3 2 3 4 4 3 3 2 3 5 3 2 3 3 4 4 2 4 4 5 5 5 7
13 10 11 10 10 10 3 2 4 1 3 4 4 4 2 1 2 3 2 3 1 3 2 2 3 2 1 5 6 5 4 4 5 4 3 8 8 3 4 2 6 4 3 4
11 11 9 11 9 8 3 3 2 2 3 9 5 5 4 2 1 4 3 4 1 2 3 3 3 1 2 1 3 6 7 6 4 4 4 9 5 3 3 6 3 2 3 4
9 10 10 9 9 9 1 1 3 0 3 6 3 12 15 9 3 2 1 2 3 4 4 2 2 2 2 2 3 3 4 7 5 8 7 5 4 5 6 2 3 3 2 5
9 11 11 11 11 9 6 3 2 1 3 6 2 11 13 15 17 9 2 2 3 2 3 4 2 1 2 3 5 2 4 5 3 0 5 10 8 7 3 2 3 5 3 6
8 12 12 12 12 12 11 3 3 2 2 5 7 3 7 9 12 15 10 3 2 4 2 2 2 2 2 2 3 2 4 3 4 5 9 7 5 4 3 3 3 1 3 5
11 12 13 13 12 13 6 3 4 4 5 4 8 15 10 9 9 14 9 5 4 2 2 2 3 2 2 2 1 4 4 6 4 6 7 4 5 2 2 3 3 3 5 5
13 14 14 13 13 11 2 3 1 4 4 2 6 6 8 5 7 7 6 4 2 2 3 2 2 1 3 2 3 6 5 4 5 5 4 5 5 3 2 3 3 3 4 5
15 15 16 15 10 1 2 4 3 6 4 2 5 5 7 8 6 3 2 3 1 2 2 2 2 3 4 3 3 2 5 9 13 9 5 5 5 5 6 4 4 5 4 5
16 17 10 5 4 4 2 3 5 6 1 2 4 6 5 6 4 3 2 3 2 2 2 2 3 1 3 4 4 7 8 11 6 11 5 3 3 5 4 4 5 6 6 5
16 10 3 2 1 1 2 4 8 2 2 3 3 4 4 2 3 3 2 2 2 1 3 2 3 2 4 2 7 7 8 6 12 13 7 2 3 5 5 5 6 6 6 5
11 3 1 1 1 6 2 3 2 2 3 3 4 5 3 1 3 2 3 2 2 3 3 3 2 3 5 5 7 6 8 9 7 7 6 2 3 6 7 7 5 6 7 7
3 2 1 2 5 2 2 2 3 3 4 4 4 3 1 3 3 3 2 2 1 2 2 2 2 2 2 7 8 8 8 9 9 9 11 10 7 6 7 7 7 8 9 8
3 2 2 2 1 1 2 3 3 4 3 2 3 2 2 1 1 3 1 3 1 1 1 2 3 2 4 8 11 12 10 11 10 8 9 7 7 7 7 7 9 9 9 10
1 1 1 1 2 3 4 3 3 2 3 3 4 3 3 3 3 3 2 2 3 2 2 3 1 2 5 8 9 11 11 11 11 9 10 8 2 4 6 7 6 9 10 9
1 1 2 3 3 4 1 1 1 2 2 3 2 2 2 2 3 1 2 1 3 2 4 4 0 3 6 7 8 9 12 12 11 10 9 7 6 4 5 7 8 8 10 10
1 2 4 5 3 2 1 1 1 1 2 3 1 1 1 2 1 1 2 2 4 4 5 2 2 3 4 6 7 9 9 10 10 10 8 8 5 4 4 4 5 6 8 8
1 3 2 3 0 2 0 2 2 1 2 2 1 1 1 2 2 1 4 3 5 3 2 2 2 4 4 4 5 7 7 8 9 8 8 6 5 1 4 5 5 6 7 9
3 3 3 3 2 3 2 1 2 1 0 1 1 3 4 1 3 3 4 3 3 4 3 2 3 3 5 5 6 6 7 7 7 8 7 7 5 1 2 5 4 6 6 7
Wind_Direction
359 -0 358 358 357 351 40 63 64 252 13 6 284 6 356 305 279 290 251 116 86 134 110 141 163 186 250 180 146 154 222 109 160 209 226 171 164 186 152 132 253 232 181 270
360 359 0 359 358 1 4 89 245 323 116 41 5 301 239 241 295 280 6 124 132 143 140 129 183 144 308 165 152 158 169 58 52 20 48 106 205 200 188 162 90 203 161 259
2 360 1 1 358 360 65 51 24 325 29 266 351 2 1 359 291 296 50 80 120 116 118 100 143 105 48 137 156 163 95 147 162 183 202 147 203 205 198 184 199 236 228 278
3 3 1 2 358 354 87 17 7 7 328 359 24 14 319 345 16 352 26 53 126 126 114 96 103 100 91 33 107 101 112 181 107 259 244 228 220 223 209 202 231 248 279 282
1 6 3 5 4 356 68 49 351 344 297 312 328 353 333 340 355 29 8 90 78 100 82 206 169 129 134 180 348 98 26 157 32 279 261 229 245 241 230 236 249 255 265 275
359 2 7 8 11 20 46 334 324 351 300 323 358 275 287 22 348 34 61 209 93 68 48 31 66 144 166 164 147 127 130 141 83 269 329 311 280 228 199 196 213 203 233 258
354 357 3 8 12 23 277 92 289 311 278 297 285 311 78 33 3 149 7 44 85 150 34 105 48 48 50 132 150 129 142 116 128 260 345 259 251 285 195 200 241 220 264 275
349 348 355 2 10 16 36 339 62 312 280 270 304 354 260 54 26 52 69 24 155 320 63 71 98 78 42 266 177 157 137 136 207 189 242 282 281 183 151 189 282 215 232 272
346 346 351 346 360 6 50 326 337 324 305 245 306 269 224 175 226 347 93 35 356 69 88 110 170 192 154 170 149 113 144 115 155 201 272 260 252 100 111 118 289 220 221 267
336 341 346 333 349 3 75 290 357 266 275 283 339 249 243 353 128 170 219 163 74 38 108 141 186 227 39 170 177 175 169 196 217 212 263 284 252 221 160 49 252 203 229 242
326 328 333 327 332 352 94 274 321 100 284 275 253 294 299 324 0 161 218 74 333 79 158 156 191 152 219 206 178 181 177 172 184 182 217 266 168 102 178 231 281 256 236 175
324 325 324 324 317 323 12 229 280 149 217 259 290 271 270 260 236 276 278 207 162 177 114 209 147 193 131 213 244 201 210 195 183 190 212 239 214 247 251 256 252 282 256 167
310 323 312 311 312 301 294 199 223 40 282 281 237 242 251 226 228 214 251 278 184 175 170 154 142 215 145 213 238 270 243 183 222 0 255 252 258 260 253 303 268 283 247 158
307 323 303 306 303 297 300 168 192 145 259 275 281 320 277 284 199 198 211 258 74 109 93 106 146 190 159 244 255 249 237 349 214 268 295 296 252 241 256 270 293 343 121 145
307 311 301 295 304 301 301 192 200 190 169 288 304 305 253 238 206 193 188 192 131 120 104 139 202 200 161 234 247 249 200 217 193 236 242 247 257 241 223 242 251 208 165 130
315 304 305 303 302 308 99 319 152 216 154 257 286 327 274 179 178 170 156 159 112 121 152 196 214 213 144 237 232 248 231 276 262 258 296 260 272 247 193 198 206 175 164 151
311 311 309 304 293 172 177 205 149 359 138 223 270 261 213 161 136 143 134 107 140 135 173 205 201 204 177 248 235 256 322 308 305 266 243 265 206 238 189 168 152 123 103 116
319 318 314 306 91 102 202 224 171 107 68 245 263 269 147 178 122 118 142 123 122 187 197 176 192 143 210 254 270 319 349 327 297 349 287 256 76 113 137 126 136 127 132 134
323 321 196 88 354 67 253 28 116 89 229 284 241 275 102 134 79 95 90 146 142 147 204 219 140 207 223 40 329 326 331 315 300 313 302 192 182 189 176 155 157 143 149 143
327 15 207 178 348 286 68 157 220 202 207 230 266 277 71 136 108 118 121 145 211 190 187 132 212 246 116 43 338 297 309 307 299 309 295 277 281 209 197 196 178 162 159 144
23 357 330 256 305 263 198 250 214 210 242 209 241 278 62 8 100 112 118 161 148 155 240 175 230 228 3 338 328 328 325 315 299 261 258 255 241 227 196 189 173 155 154 155
219 251 293 291 297 233 261 250 226 225 269 307 297 343 354 32 354 108 5 112 50 212 117 122 245 115 331 333 327 326 329 329 323 317 327 269 231 223 186 168 164 160 143 139
172 194 357 240 200 239 223 224 221 243 343 349 340 348 353 7 26 58 93 112 182 100 154 226 197 6 341 330 323 325 330 336 343 343 348 339 315 163 159 149 151 142 142 156
122 164 241 209 204 239 227 182 321 345 302 325 320 341 37 350 39 88 123 137 109 206 223 228 92 345 326 327 328 332 333 339 338 339 336 359 16 64 91 119 139 150 156 160
176 147 238 220 249 276 229 264 267 253 302 317 329 319 41 25 130 215 111 144 223 217 219 147 245 287 319 327 338 339 337 336 335 339 348 342 4 94 98 115 132 138 139 141
112 234 267 248 321 249 50 288 261 132 327 275 279 260 150 217 164 146 218 219 226 219 131 215 286 321 319 317 327 333 332 331 331 335 334 335 344 185 159 137 143 140 152 154
219 236 225 237 285 250 209 192 261 312 109 277 232 207 197 216 192 217 205 222 159 153 182 211 226 281 306 323 323 336 338 337 337 336 342 333 334 53 150 166 171 154 148 148